sat.trackr.live / text

‹ back to catalog

STARLINK-36051

NORAD 66793 · 2025-278C

PAYLOAD ACTIVE UNKNOWN

§ Identity

Operator
Country
US
Launch date
2025-12-01
Launch site
AFETR
Launch vehicle
Mass (kg)
RCS (m²)

Purposes: comms

External: N2YO · Heavens-Above · Gunter

§ Orbital elements

Epoch: 2026-05-25T02:24:05.260032Z

Period
94.27 min
Inclination
43.0038°
Eccentricity
0.0001033
Mean motion
15.27587231 rev/d
Perigee alt
482.3 km
Apogee alt
483.7 km
Semi-major
6,861.2 km
B*
2.8516e-4
RAAN
42.9639°
Arg perigee
277.6497°
Mean anomaly
82.4237°
Rev number
2,689

§ Raw data

STARLINK-360511 66793U 25278C   26145.10006088  .00007595  00000+0  28516-3 0  99962 66793  43.0038  42.9639 0001033 277.6497  82.4237 15.27587231 26895

JSON: /api/v1/satellites/66793 · /tle

For live sub-satellite position, see the globe view (requires WebGL).

§ Visibility from observer

Set your observer location to see the next 7 days of passes ≥ 10°. The values pass through the URL so the page stays shareable.

No JS? Fill the form by hand. The geolocation button needs JavaScript.